SL-8 R/B (5730 NORAD) Tracking and Keplerian Element Data

This shows tracking and keplerian element data for the satellite.

Feedback or suggestion? Click here.




ElementValue
Catalog5730
NameSL-8 R/B
Epoch Orbit44054
Epoch Day15.7969167
Epoch Year2022
RAAN50.2371
Inclination73.8941
Eccentricity0.0682177
Argument of Perigee321.7968
Mean Anonmoly33.6621
Mean Motion14.06222214
Decay Rate4.866E-05
L11 05730U 71119B 22015.79691670 .00004866 00000+0 30599-3 0 9991
L22 05730 73.8941 50.2371 0682177 321.7968 33.6621 14.06222214440546

Live tracking and technical data element details for SL-8 R/B (NORAD 5730). SL-8 R/B can be tracked NOW for your location showing map with azimuth and elevation plus other details from your city location.

Track the satellite on the map from your city or location and see movement details for azimuth, elevation, latitude, longitude, range, height, and movement on the map or in text.







IsCatalogInMostPopularTable: catalog: 5730, numindb: 328
Update: records affected: 1



GetName: 5730 SL-8 R/B

Hit Count: updated at: Mon, 17 Jan 2022 00:21:43 GMT